TUA802 WMKK-UTAA

Flight info

Callsign TUA802
Flight time 7h 19m
Altitude 36000
Route BIKDU Y501 VIH R325 RINBA Y502 DUBAX R325 PUT L759 NOBOM J30 GWA W10N POSIG L760 DPN J24 ASARI L509 SULOM A466 DI J145 REGET N644 LEMOD A909 NINOP A125 KEMOR
Aircraft B77L/H-SDE1E2E3FGHIJ2J3J4J5M1RWXY/LB1D1

Departure

Time 2026-04-25 09:10
Airport Kuala Lumpur International Airport (WMKK)

Arrival

Time 2026-04-25 16:30
Airport Ashgabat International Airport (UTAA)
Time Latitude Longitude Altitude Speed Heading
2026-04-25 08:28 2.74520 101.71461 77 ft 0 kts 56°
2026-04-25 08:57 2.74520 101.71462 77 ft 0 kts 56°
2026-04-25 08:57 2.74503 101.71433 66 ft 7 kts 69°
2026-04-25 08:57 2.74497 101.71408 66 ft 0 kts 100°
2026-04-25 08:58 2.74504 101.71388 66 ft 0 kts 126°
2026-04-25 08:58 2.74514 101.71376 66 ft 0 kts 140°
2026-04-25 08:58 2.74530 101.71364 66 ft 0 kts 149°
2026-04-25 09:03 2.74527 101.71365 66 ft 2 kts 149°
2026-04-25 09:03 2.74495 101.71387 68 ft 7 kts 147°
2026-04-25 09:03 2.74456 101.71412 70 ft 6 kts 146°
2026-04-25 09:03 2.74419 101.71438 69 ft 6 kts 146°
2026-04-25 09:04 2.74383 101.71465 72 ft 7 kts 131°
2026-04-25 09:04 2.74382 101.71512 68 ft 8 kts 71°
2026-04-25 09:04 2.74412 101.71563 70 ft 9 kts 55°
2026-04-25 09:04 2.74451 101.71618 68 ft 10 kts 55°
2026-04-25 09:05 2.74489 101.71673 68 ft 10 kts 55°
2026-04-25 09:05 2.74528 101.71729 71 ft 10 kts 55°
2026-04-25 09:05 2.74564 101.71786 68 ft 10 kts 58°
2026-04-25 09:05 2.74598 101.71838 66 ft 7 kts 55°
2026-04-25 09:06 2.74625 101.71876 66 ft 7 kts 55°
2026-04-25 09:06 2.74637 101.71894 69 ft 1 kts 58°
2026-04-25 09:06 2.74642 101.71902 69 ft 0 kts 59°
2026-04-25 09:07 2.74643 101.71904 69 ft 2 kts 58°
2026-04-25 09:07 2.74655 101.71924 67 ft 4 kts 58°
2026-04-25 09:07 2.74669 101.71946 83 ft 4 kts 58°
2026-04-25 09:08 2.74684 101.71970 85 ft 7 kts 56°
2026-04-25 09:08 2.74727 101.72034 89 ft 12 kts 56°
2026-04-25 09:08 2.74774 101.72102 86 ft 12 kts 55°
2026-04-25 09:08 2.74822 101.72170 87 ft 11 kts 54°
2026-04-25 09:09 2.74876 101.72179 85 ft 3 kts 335°
2026-04-25 09:09 2.74897 101.72163 87 ft 4 kts 322°
2026-04-25 09:09 2.74904 101.72158 86 ft 0 kts 322°
2026-04-25 09:09 2.75001 101.72087 86 ft 57 kts 324°
2026-04-25 09:10 2.75642 101.71672 85 ft 162 kts 327°
2026-04-25 09:10 2.76732 101.70925 718 ft 198 kts 323°
2026-04-25 09:10 2.77875 101.70070 1826 ft 202 kts 321°
2026-04-25 09:10 2.79049 101.69259 2786 ft 215 kts 327°
2026-04-25 09:11 2.82053 101.68351 3911 ft 234 kts 339°
2026-04-25 09:11 2.83529 101.67690 4645 ft 234 kts 339°
2026-04-25 09:11 2.85078 101.67082 5032 ft 249 kts 341°
2026-04-25 09:12 2.86773 101.66461 5414 ft 267 kts 342°
2026-04-25 09:12 2.88535 101.65821 6431 ft 267 kts 341°
2026-04-25 09:12 2.90295 101.65230 7303 ft 271 kts 346°
2026-04-25 09:12 2.92151 101.64745 8149 ft 276 kts 347°
2026-04-25 09:13 2.94029 101.64291 8989 ft 284 kts 348°
2026-04-25 09:13 2.95974 101.63827 9757 ft 293 kts 348°
2026-04-25 09:13 2.97999 101.63341 10526 ft 300 kts 348°
2026-04-25 09:13 3.00028 101.62849 11351 ft 304 kts 347°
2026-04-25 09:14 3.02101 101.62342 12231 ft 307 kts 348°
2026-04-25 09:14 3.04177 101.61831 13052 ft 312 kts 347°
2026-04-25 09:14 3.06317 101.61303 13846 ft 316 kts 347°
2026-04-25 09:14 3.08466 101.60771 14597 ft 320 kts 347°
2026-04-25 09:15 3.10628 101.60235 15356 ft 323 kts 347°
2026-04-25 09:15 3.12828 101.59689 16102 ft 327 kts 348°
2026-04-25 09:15 3.15031 101.59141 16828 ft 332 kts 348°
2026-04-25 09:15 3.17301 101.58577 17561 ft 336 kts 348°
2026-04-25 09:16 3.19566 101.58014 18243 ft 340 kts 348°
2026-04-25 09:16 3.21880 101.57439 18888 ft 344 kts 348°
2026-04-25 09:16 3.24209 101.56859 19539 ft 347 kts 348°
2026-04-25 09:16 3.26579 101.56270 20210 ft 350 kts 348°
2026-04-25 09:17 3.31502 101.55049 20695 ft 386 kts 348°
2026-04-25 09:17 3.34193 101.54383 20831 ft 405 kts 348°
2026-04-25 09:17 3.36973 101.53694 20955 ft 423 kts 348°
2026-04-25 09:18 3.39896 101.52969 21191 ft 436 kts 347°
2026-04-25 09:18 3.42876 101.52228 21555 ft 445 kts 347°
2026-04-25 09:18 3.45889 101.51477 22082 ft 448 kts 347°
2026-04-25 09:18 3.48910 101.50723 22662 ft 451 kts 347°
2026-04-25 09:19 3.51961 101.49962 23198 ft 454 kts 347°
2026-04-25 09:19 3.55033 101.49196 23646 ft 458 kts 347°
2026-04-25 09:19 3.58128 101.48426 24061 ft 461 kts 347°
2026-04-25 09:19 3.61284 101.47640 24488 ft 465 kts 347°
2026-04-25 09:20 3.64425 101.46859 24901 ft 468 kts 347°
2026-04-25 09:20 3.67580 101.46074 25315 ft 471 kts 347°
2026-04-25 09:20 3.70805 101.45272 25715 ft 474 kts 347°
2026-04-25 09:20 3.73991 101.44482 26102 ft 477 kts 347°
2026-04-25 09:21 3.77228 101.43678 26508 ft 480 kts 347°
2026-04-25 09:21 3.80470 101.42871 26897 ft 483 kts 347°
2026-04-25 09:21 3.83730 101.42013 27264 ft 487 kts 344°
2026-04-25 09:21 3.86970 101.40861 27647 ft 491 kts 338°
2026-04-25 09:22 3.90074 101.39481 27998 ft 494 kts 336°
2026-04-25 09:22 3.93206 101.38049 28355 ft 498 kts 336°
2026-04-25 09:22 3.96365 101.36602 28722 ft 500 kts 336°
2026-04-25 09:22 3.99577 101.35141 29077 ft 503 kts 336°
2026-04-25 09:23 4.02769 101.33703 29420 ft 506 kts 336°
2026-04-25 09:23 4.05988 101.32264 29742 ft 509 kts 336°
2026-04-25 09:23 4.09211 101.30829 30029 ft 512 kts 336°
2026-04-25 09:23 4.12462 101.29385 30346 ft 512 kts 336°
2026-04-25 09:24 4.15749 101.27925 30746 ft 511 kts 336°
2026-04-25 09:24 4.18982 101.26488 31181 ft 510 kts 336°
2026-04-25 09:24 4.22229 101.25044 31619 ft 508 kts 336°
2026-04-25 09:24 4.25451 101.23609 32039 ft 507 kts 336°
2026-04-25 09:25 4.28668 101.22177 32451 ft 506 kts 336°
2026-04-25 09:25 4.31877 101.20748 32856 ft 506 kts 336°
2026-04-25 09:25 4.35114 101.19307 33245 ft 505 kts 336°
2026-04-25 09:25 4.38305 101.17887 33673 ft 504 kts 336°
2026-04-25 09:26 4.41475 101.16476 34064 ft 503 kts 336°
2026-04-25 09:26 4.44695 101.15043 34434 ft 501 kts 336°
2026-04-25 09:26 4.47899 101.13618 34802 ft 500 kts 336°
2026-04-25 09:26 4.51065 101.12211 35163 ft 498 kts 336°
2026-04-25 09:27 4.54217 101.10809 35502 ft 497 kts 335°
2026-04-25 09:27 4.57367 101.09404 35823 ft 497 kts 335°
2026-04-25 09:27 4.60523 101.08013 35798 ft 500 kts 336°
2026-04-25 09:28 4.66918 101.05250 35804 ft 495 kts 336°
2026-04-25 09:28 4.73203 101.02551 35807 ft 493 kts 336°
2026-04-25 09:29 4.79503 100.99841 35830 ft 492 kts 336°
2026-04-25 09:29 4.85789 100.97130 35837 ft 491 kts 336°
2026-04-25 09:30 4.92084 100.94414 35843 ft 492 kts 336°
2026-04-25 09:30 4.98343 100.91714 35843 ft 492 kts 336°
2026-04-25 09:31 5.04642 100.88996 35839 ft 493 kts 336°
2026-04-25 09:31 5.09914 100.86721 35836 ft 493 kts 336°
2026-04-25 09:32 5.16220 100.83999 35836 ft 493 kts 336°
2026-04-25 09:32 5.22524 100.81280 35834 ft 494 kts 336°
2026-04-25 09:33 5.28844 100.78555 35838 ft 494 kts 336°
2026-04-25 09:33 5.35129 100.75842 35831 ft 495 kts 336°
2026-04-25 09:34 5.41267 100.72735 35828 ft 495 kts 329°
2026-04-25 09:34 5.47255 100.69276 35817 ft 495 kts 329°
2026-04-25 09:35 5.53227 100.65843 35812 ft 495 kts 329°
2026-04-25 09:35 5.59223 100.62441 35809 ft 496 kts 330°
2026-04-25 09:36 5.65245 100.59037 35807 ft 496 kts 330°
2026-04-25 09:36 5.71261 100.55634 35812 ft 496 kts 329°
2026-04-25 09:37 5.77275 100.52228 35820 ft 496 kts 329°
2026-04-25 09:37 5.83221 100.48764 35820 ft 496 kts 328°
2026-04-25 09:38 5.89121 100.45181 35813 ft 495 kts 328°
2026-04-25 09:38 5.95035 100.41598 35802 ft 495 kts 328°
2026-04-25 09:39 6.00938 100.38051 35789 ft 494 kts 328°
2026-04-25 09:39 6.06820 100.34524 35781 ft 493 kts 328°
2026-04-25 09:40 6.15620 100.29246 35779 ft 492 kts 328°
2026-04-25 09:40 6.21520 100.25705 35784 ft 491 kts 328°
2026-04-25 09:41 6.27354 100.22204 35788 ft 491 kts 328°
2026-04-25 09:41 6.33252 100.18667 35797 ft 491 kts 328°
2026-04-25 09:42 6.39105 100.15151 35803 ft 490 kts 327°
2026-04-25 09:42 6.44563 100.11076 35813 ft 489 kts 316°
2026-04-25 09:43 6.49240 100.06164 35805 ft 487 kts 310°
2026-04-25 09:43 6.53728 100.01104 35809 ft 488 kts 310°
2026-04-25 09:44 6.58270 99.96029 35814 ft 488 kts 311°
2026-04-25 09:44 6.62849 99.90964 35811 ft 489 kts 311°
2026-04-25 09:45 6.67419 99.85922 35816 ft 489 kts 311°
2026-04-25 09:45 6.72011 99.80852 35816 ft 489 kts 311°
2026-04-25 09:46 6.76611 99.75769 35817 ft 490 kts 311°
2026-04-25 09:46 6.81203 99.70693 35818 ft 490 kts 311°
2026-04-25 09:47 6.85772 99.65641 35815 ft 490 kts 311°
2026-04-25 09:47 6.90362 99.60566 35817 ft 490 kts 311°
2026-04-25 09:48 6.94945 99.55500 35813 ft 490 kts 311°
2026-04-25 09:48 6.99538 99.50421 35812 ft 490 kts 310°
2026-04-25 09:49 7.04188 99.45367 35818 ft 490 kts 311°
2026-04-25 09:49 7.08880 99.40388 35818 ft 490 kts 312°
2026-04-25 09:50 7.13566 99.35419 35818 ft 490 kts 311°
2026-04-25 09:50 7.18272 99.30412 35815 ft 490 kts 311°
2026-04-25 09:51 7.22952 99.25423 35815 ft 490 kts 311°
2026-04-25 09:51 7.27612 99.20451 35822 ft 490 kts 311°
2026-04-25 09:52 7.32318 99.15431 35822 ft 490 kts 312°
2026-04-25 09:52 7.36981 99.10456 35824 ft 490 kts 312°
2026-04-25 09:53 7.41650 99.05472 35828 ft 490 kts 312°
2026-04-25 09:53 7.46336 99.00470 35829 ft 490 kts 312°
2026-04-25 09:54 7.50994 98.95495 35834 ft 489 kts 311°
2026-04-25 09:54 7.55684 98.90485 35835 ft 489 kts 312°
2026-04-25 09:55 7.60328 98.85524 35833 ft 489 kts 312°
2026-04-25 09:55 7.65009 98.80525 35833 ft 488 kts 312°
2026-04-25 09:56 7.69667 98.75549 35832 ft 488 kts 312°
2026-04-25 09:56 7.74295 98.70561 35831 ft 487 kts 311°
2026-04-25 09:57 7.78897 98.65539 35831 ft 486 kts 311°
2026-04-25 09:57 7.83512 98.60579 35833 ft 485 kts 312°
2026-04-25 09:58 7.88147 98.55622 35833 ft 485 kts 312°
2026-04-25 09:58 7.92756 98.50685 35824 ft 485 kts 312°
2026-04-25 09:59 7.97385 98.45721 35818 ft 485 kts 312°
2026-04-25 09:59 8.01999 98.40773 35811 ft 486 kts 311°
2026-04-25 10:00 8.06644 98.35794 35802 ft 487 kts 312°
2026-04-25 10:00 8.11313 98.30796 35799 ft 488 kts 313°
2026-04-25 10:01 8.16262 98.26125 35802 ft 489 kts 316°
2026-04-25 10:01 8.21326 98.21506 35806 ft 489 kts 316°
2026-04-25 10:02 8.26348 98.16907 35814 ft 490 kts 316°
2026-04-25 10:02 8.31381 98.12273 35824 ft 490 kts 316°
2026-04-25 10:03 8.36417 98.07631 35830 ft 489 kts 316°
2026-04-25 10:03 8.41441 98.03002 35833 ft 489 kts 316°
2026-04-25 10:04 8.46467 97.98373 35835 ft 489 kts 316°
2026-04-25 10:04 8.51494 97.93720 35828 ft 489 kts 316°
2026-04-25 10:05 8.56476 97.89077 35828 ft 489 kts 316°
2026-04-25 10:05 8.61495 97.84406 35830 ft 489 kts 316°
2026-04-25 10:06 8.66480 97.79773 35830 ft 489 kts 316°
2026-04-25 10:06 8.71485 97.75123 35830 ft 489 kts 316°
2026-04-25 10:07 8.76501 97.70462 35831 ft 489 kts 316°
2026-04-25 10:07 8.81512 97.65807 35829 ft 489 kts 316°
2026-04-25 10:08 8.86508 97.61155 35830 ft 489 kts 316°
2026-04-25 10:08 8.91495 97.56497 35831 ft 489 kts 316°
2026-04-25 10:09 8.96489 97.51833 35829 ft 489 kts 316°
2026-04-25 10:09 9.01484 97.47176 35831 ft 489 kts 316°
2026-04-25 10:10 9.06509 97.42491 35833 ft 490 kts 316°
2026-04-25 10:10 9.11522 97.37815 35830 ft 490 kts 317°
2026-04-25 10:11 9.16522 97.33150 35833 ft 490 kts 317°
2026-04-25 10:11 9.21519 97.28485 35836 ft 490 kts 317°
2026-04-25 10:12 9.26534 97.23801 35836 ft 490 kts 317°
2026-04-25 10:13 9.33219 97.17555 35838 ft 490 kts 317°
2026-04-25 10:13 9.38236 97.12865 35840 ft 490 kts 317°
2026-04-25 10:14 9.43231 97.08195 35843 ft 490 kts 317°
2026-04-25 10:14 9.48251 97.03498 35843 ft 490 kts 317°
2026-04-25 10:15 9.53238 96.98831 35840 ft 490 kts 317°
2026-04-25 10:15 9.58241 96.94147 35840 ft 490 kts 317°
2026-04-25 10:16 9.63255 96.89451 35842 ft 490 kts 317°
2026-04-25 10:16 9.68237 96.84783 35840 ft 490 kts 317°
2026-04-25 10:17 9.73242 96.80091 35845 ft 490 kts 317°
2026-04-25 10:17 9.78245 96.75400 35844 ft 490 kts 317°
2026-04-25 10:18 9.83229 96.70726 35850 ft 492 kts 317°
2026-04-25 10:18 9.88318 96.65953 35854 ft 501 kts 317°
2026-04-25 10:19 9.93449 96.61142 35855 ft 506 kts 317°
2026-04-25 10:19 9.98640 96.56267 35850 ft 508 kts 317°
2026-04-25 10:20 10.03536 96.51060 35843 ft 509 kts 311°
2026-04-25 10:20 10.08179 96.45624 35844 ft 509 kts 311°
2026-04-25 10:21 10.12788 96.40228 35843 ft 509 kts 311°
2026-04-25 10:21 10.17448 96.34825 35846 ft 507 kts 311°
2026-04-25 10:22 10.22101 96.29455 35845 ft 506 kts 311°
2026-04-25 10:22 10.26766 96.24073 35847 ft 506 kts 311°
2026-04-25 10:23 10.31386 96.18736 35849 ft 505 kts 311°
2026-04-25 10:23 10.36027 96.13370 35846 ft 505 kts 311°
2026-04-25 10:24 10.40665 96.08005 35847 ft 504 kts 311°
2026-04-25 10:24 10.45272 96.02673 35847 ft 504 kts 311°
2026-04-25 10:25 10.49887 95.97329 35847 ft 504 kts 311°
2026-04-25 10:25 10.54510 95.91973 35847 ft 505 kts 311°
2026-04-25 10:26 10.59165 95.86578 35847 ft 505 kts 311°
2026-04-25 10:26 10.63776 95.81231 35849 ft 505 kts 311°
2026-04-25 10:27 10.68412 95.75853 36013 ft 508 kts 311°
2026-04-25 10:27 10.70733 95.73160 36292 ft 506 kts 311°
2026-04-25 10:27 10.73042 95.70480 36627 ft 504 kts 311°
2026-04-25 10:27 10.75377 95.67767 36953 ft 502 kts 311°
2026-04-25 10:28 10.77673 95.65100 37236 ft 501 kts 311°
2026-04-25 10:28 10.79954 95.62449 37457 ft 501 kts 311°
2026-04-25 10:28 10.82251 95.59779 37671 ft 502 kts 311°
2026-04-25 10:28 10.84544 95.57113 37777 ft 503 kts 311°
2026-04-25 10:29 10.86846 95.54437 37821 ft 504 kts 311°
2026-04-25 10:29 10.91472 95.49058 37839 ft 504 kts 311°
2026-04-25 10:30 10.96065 95.43712 37847 ft 502 kts 311°
2026-04-25 10:30 11.00649 95.38375 37864 ft 501 kts 311°
2026-04-25 10:31 11.05249 95.33016 37846 ft 500 kts 311°
2026-04-25 10:31 11.09828 95.27680 37849 ft 500 kts 311°
2026-04-25 10:32 11.14373 95.22381 37867 ft 499 kts 311°
2026-04-25 10:32 11.18961 95.17027 37848 ft 499 kts 311°
2026-04-25 10:33 11.23534 95.11690 37852 ft 500 kts 311°
2026-04-25 10:33 11.28093 95.06365 37857 ft 499 kts 311°
2026-04-25 10:34 11.32635 95.01059 37853 ft 497 kts 311°
2026-04-25 10:34 11.37163 94.95765 37856 ft 495 kts 311°
2026-04-25 10:35 11.41691 94.90469 37852 ft 494 kts 311°
2026-04-25 10:35 11.46197 94.85194 37854 ft 492 kts 311°
2026-04-25 10:36 11.50677 94.79950 37851 ft 491 kts 311°
2026-04-25 10:36 11.55165 94.74692 37852 ft 490 kts 311°
2026-04-25 10:37 11.59650 94.69436 37856 ft 490 kts 311°
2026-04-25 10:37 11.64114 94.64203 37858 ft 490 kts 311°
2026-04-25 10:38 11.68570 94.58976 37850 ft 490 kts 311°
2026-04-25 10:38 11.73046 94.53724 37856 ft 490 kts 311°
2026-04-25 10:39 11.77515 94.48482 37859 ft 491 kts 311°
2026-04-25 10:39 11.82002 94.43213 37852 ft 492 kts 311°
2026-04-25 10:40 11.86738 94.38177 37860 ft 491 kts 316°
2026-04-25 10:40 11.91677 94.33323 37855 ft 492 kts 316°
2026-04-25 10:41 11.96599 94.28486 37857 ft 493 kts 316°
2026-04-25 10:41 12.01521 94.23614 37856 ft 494 kts 316°
2026-04-25 10:42 12.06462 94.18711 37858 ft 494 kts 316°
2026-04-25 10:42 12.11406 94.13802 37856 ft 494 kts 316°
2026-04-25 10:43 12.16325 94.08922 37854 ft 493 kts 316°
2026-04-25 10:43 12.21217 94.04065 37860 ft 492 kts 316°
2026-04-25 10:44 12.26131 93.99195 37858 ft 491 kts 316°
2026-04-25 10:44 12.31062 93.94335 37853 ft 489 kts 316°
2026-04-25 10:45 12.35924 93.89552 37852 ft 488 kts 316°
2026-04-25 10:45 12.40846 93.84707 37854 ft 487 kts 316°
2026-04-25 10:46 12.45710 93.79914 37853 ft 486 kts 315°
2026-04-25 10:46 12.50567 93.75125 37855 ft 485 kts 315°
2026-04-25 10:47 12.55411 93.70346 37857 ft 485 kts 315°
2026-04-25 10:47 12.60285 93.65535 37854 ft 485 kts 315°
2026-04-25 10:48 12.65119 93.60761 37852 ft 485 kts 315°
2026-04-25 10:48 12.69986 93.55951 37854 ft 485 kts 315°
2026-04-25 10:49 12.74834 93.51158 37854 ft 486 kts 315°
2026-04-25 10:49 12.79724 93.46320 37858 ft 486 kts 315°
2026-04-25 10:50 12.84560 93.41534 37854 ft 487 kts 315°
2026-04-25 10:50 12.89456 93.36685 37856 ft 487 kts 315°
2026-04-25 10:51 12.94307 93.31878 37857 ft 487 kts 315°
2026-04-25 10:51 12.99168 93.27058 37852 ft 487 kts 315°
2026-04-25 10:52 13.04053 93.22212 37849 ft 487 kts 315°
2026-04-25 10:52 13.08903 93.17398 37851 ft 487 kts 315°
2026-04-25 10:53 13.13757 93.12577 37858 ft 487 kts 315°
2026-04-25 10:53 13.18629 93.07735 37858 ft 487 kts 315°
2026-04-25 10:54 13.23496 93.02895 37855 ft 487 kts 315°
2026-04-25 10:54 13.28365 92.98051 37855 ft 487 kts 315°
2026-04-25 10:55 13.33226 92.93212 37860 ft 487 kts 315°
2026-04-25 10:55 13.38087 92.88369 37855 ft 487 kts 315°
2026-04-25 10:56 13.42965 92.83508 37850 ft 487 kts 314°
2026-04-25 10:56 13.47814 92.78673 37858 ft 487 kts 314°
2026-04-25 10:57 13.52651 92.73846 37856 ft 487 kts 314°
2026-04-25 10:57 13.57504 92.69001 37859 ft 487 kts 314°
2026-04-25 10:58 13.62357 92.64153 37858 ft 487 kts 314°
2026-04-25 10:58 13.66422 92.60090 37867 ft 487 kts 314°
2026-04-25 10:59 13.71262 92.55250 37863 ft 487 kts 314°
2026-04-25 10:59 13.76101 92.50409 37868 ft 486 kts 314°
2026-04-25 11:00 13.80953 92.45553 37867 ft 486 kts 314°
2026-04-25 11:00 13.85811 92.40690 37849 ft 486 kts 314°
2026-04-25 11:01 13.90636 92.35860 37866 ft 485 kts 314°
2026-04-25 11:01 13.95467 92.30983 37868 ft 485 kts 313°
2026-04-25 11:02 14.00162 92.26020 37872 ft 484 kts 312°
2026-04-25 11:02 14.04856 92.21026 37853 ft 484 kts 312°
2026-04-25 11:03 14.09555 92.16065 37864 ft 484 kts 312°
2026-04-25 11:03 14.14276 92.11094 37868 ft 484 kts 312°
2026-04-25 11:04 14.18958 92.06164 37870 ft 483 kts 312°
2026-04-25 11:04 14.23667 92.01200 37868 ft 483 kts 312°
2026-04-25 11:05 14.28397 91.96255 37856 ft 483 kts 313°
2026-04-25 11:05 14.33155 91.91383 37857 ft 483 kts 313°
2026-04-25 11:06 14.37920 91.86521 37855 ft 483 kts 313°
2026-04-25 11:06 14.42696 91.81633 37867 ft 482 kts 313°
2026-04-25 11:07 14.47427 91.76782 37870 ft 482 kts 313°
2026-04-25 11:07 14.52198 91.71885 37860 ft 482 kts 313°
2026-04-25 11:08 14.56936 91.67017 37864 ft 481 kts 313°
2026-04-25 11:08 14.61683 91.62139 37853 ft 481 kts 313°
2026-04-25 11:09 14.66422 91.57264 37862 ft 481 kts 313°
2026-04-25 11:09 14.71153 91.52396 37875 ft 480 kts 313°
2026-04-25 11:10 14.75879 91.47530 37862 ft 480 kts 312°
2026-04-25 11:10 14.80598 91.42667 37855 ft 480 kts 312°
2026-04-25 11:11 14.85311 91.37808 37859 ft 479 kts 312°
2026-04-25 11:11 14.90039 91.32930 37880 ft 479 kts 312°
2026-04-25 11:12 14.94764 91.28052 37866 ft 479 kts 312°
2026-04-25 11:12 14.99473 91.23187 37861 ft 479 kts 312°
2026-04-25 11:13 15.04157 91.18344 37866 ft 478 kts 312°
2026-04-25 11:13 15.08874 91.13465 37873 ft 478 kts 312°
2026-04-25 11:14 15.13585 91.08588 37874 ft 478 kts 312°
2026-04-25 11:14 15.18274 91.03731 37873 ft 478 kts 312°
2026-04-25 11:15 15.22962 90.98872 37869 ft 478 kts 312°
2026-04-25 11:15 15.27669 90.93989 37870 ft 478 kts 312°
2026-04-25 11:16 15.34738 90.86652 37871 ft 478 kts 312°
2026-04-25 11:16 15.39411 90.81796 37868 ft 478 kts 312°
2026-04-25 11:17 15.44117 90.76905 37868 ft 478 kts 312°
2026-04-25 11:17 15.48804 90.72028 37866 ft 478 kts 311°
2026-04-25 11:18 15.53500 90.67140 37872 ft 479 kts 311°
2026-04-25 11:18 15.58217 90.62226 37867 ft 479 kts 311°
2026-04-25 11:19 15.62889 90.57356 37870 ft 479 kts 311°
2026-04-25 11:19 15.67590 90.52452 37867 ft 479 kts 311°
2026-04-25 11:20 15.72301 90.47535 37870 ft 480 kts 311°
2026-04-25 11:20 15.77013 90.42613 37874 ft 480 kts 311°
2026-04-25 11:21 15.81690 90.37726 37868 ft 480 kts 311°
2026-04-25 11:21 15.86422 90.32778 37869 ft 480 kts 311°
2026-04-25 11:22 15.90335 90.28685 37871 ft 480 kts 311°
2026-04-25 11:22 15.95824 90.22942 37871 ft 480 kts 311°
2026-04-25 11:23 16.00525 90.18020 37868 ft 480 kts 311°
2026-04-25 11:23 16.05256 90.13104 37869 ft 480 kts 312°
2026-04-25 11:24 16.09992 90.08269 37870 ft 480 kts 312°
2026-04-25 11:24 16.14763 90.03408 37869 ft 480 kts 312°
2026-04-25 11:25 16.19537 89.98531 37868 ft 480 kts 311°
2026-04-25 11:25 16.24300 89.93658 37861 ft 480 kts 311°
2026-04-25 11:26 16.29059 89.88783 37864 ft 480 kts 311°
2026-04-25 11:26 16.33814 89.83909 37864 ft 480 kts 311°
2026-04-25 11:27 16.38554 89.79046 37863 ft 480 kts 311°
2026-04-25 11:27 16.42531 89.74964 37860 ft 480 kts 311°
2026-04-25 11:28 16.48051 89.69296 37864 ft 479 kts 311°
2026-04-25 11:28 16.52800 89.64414 37864 ft 479 kts 311°
2026-04-25 11:29 16.57563 89.59514 37864 ft 479 kts 311°
2026-04-25 11:29 16.62281 89.54657 37861 ft 479 kts 311°
2026-04-25 11:30 16.67031 89.49765 37864 ft 478 kts 311°
2026-04-25 11:30 16.71741 89.44909 37864 ft 477 kts 311°
2026-04-25 11:31 16.76464 89.40036 37861 ft 477 kts 311°
2026-04-25 11:31 16.81182 89.35166 37860 ft 476 kts 311°
2026-04-25 11:32 16.85897 89.30295 37859 ft 475 kts 311°
2026-04-25 11:32 16.90596 89.25438 37860 ft 475 kts 311°
2026-04-25 11:33 16.95288 89.20583 37858 ft 474 kts 311°
2026-04-25 11:33 16.99951 89.15756 37857 ft 473 kts 311°
2026-04-25 11:34 17.04624 89.10915 37859 ft 473 kts 311°
2026-04-25 11:34 17.09298 89.06072 37859 ft 473 kts 310°
2026-04-25 11:35 17.13963 89.01237 37854 ft 473 kts 310°
2026-04-25 11:35 17.18626 88.96399 37856 ft 472 kts 310°
2026-04-25 11:36 17.23297 88.91579 37855 ft 473 kts 311°
2026-04-25 11:36 17.28005 88.86778 37853 ft 473 kts 311°
2026-04-25 11:37 17.32731 88.81965 37852 ft 473 kts 311°
2026-04-25 11:37 17.37437 88.77166 37853 ft 472 kts 311°
2026-04-25 11:38 17.42155 88.72346 37854 ft 472 kts 311°
2026-04-25 11:38 17.46836 88.67560 37852 ft 472 kts 311°
2026-04-25 11:39 17.51556 88.62731 37850 ft 472 kts 310°
2026-04-25 11:39 17.56238 88.57935 37852 ft 472 kts 310°
2026-04-25 11:40 17.60965 88.53091 37850 ft 472 kts 310°
2026-04-25 11:40 17.65636 88.48301 37850 ft 472 kts 310°
2026-04-25 11:41 17.70323 88.43490 37853 ft 472 kts 310°
2026-04-25 11:41 17.75027 88.38660 37850 ft 472 kts 310°
2026-04-25 11:42 17.78934 88.34643 37842 ft 472 kts 310°
2026-04-25 11:42 17.83631 88.29813 37840 ft 472 kts 310°
2026-04-25 11:43 17.88327 88.24979 37843 ft 472 kts 310°
2026-04-25 11:43 17.93002 88.20163 37846 ft 471 kts 310°
2026-04-25 11:44 17.97670 88.15351 37841 ft 471 kts 310°
2026-04-25 11:44 18.02358 88.10515 37845 ft 471 kts 310°
2026-04-25 11:45 18.07031 88.05691 37845 ft 471 kts 310°
2026-04-25 11:45 18.11715 88.00853 37843 ft 470 kts 310°
2026-04-25 11:46 18.16358 87.96053 37843 ft 470 kts 310°
2026-04-25 11:46 18.21037 87.91215 37842 ft 470 kts 310°
2026-04-25 11:47 18.25685 87.86408 37839 ft 470 kts 310°
2026-04-25 11:47 18.30352 87.81579 37838 ft 469 kts 310°
2026-04-25 11:48 18.35022 87.76803 37845 ft 469 kts 310°
2026-04-25 11:48 18.39731 87.72007 37846 ft 469 kts 310°
2026-04-25 11:49 18.44402 87.67246 37842 ft 468 kts 310°
2026-04-25 11:49 18.49072 87.62480 37838 ft 468 kts 310°
2026-04-25 11:50 18.53731 87.57720 37841 ft 467 kts 310°
2026-04-25 11:50 18.58414 87.52929 37835 ft 467 kts 310°
2026-04-25 11:51 18.63045 87.48189 37834 ft 466 kts 310°
2026-04-25 11:51 18.67705 87.43416 37839 ft 465 kts 310°
2026-04-25 11:52 18.72346 87.38658 37840 ft 464 kts 310°
2026-04-25 11:52 18.76963 87.33920 37840 ft 464 kts 310°
2026-04-25 11:53 18.81586 87.29172 37823 ft 463 kts 310°
2026-04-25 11:53 18.86207 87.24424 37835 ft 463 kts 310°
2026-04-25 11:54 18.90820 87.19679 37826 ft 462 kts 310°
2026-04-25 11:55 18.97712 87.12583 37833 ft 461 kts 310°
2026-04-25 11:55 19.02305 87.07850 37832 ft 461 kts 310°
2026-04-25 11:56 19.06876 87.03136 37829 ft 461 kts 310°
2026-04-25 11:56 19.11471 86.98392 37822 ft 460 kts 310°
2026-04-25 11:57 19.16045 86.93667 37824 ft 460 kts 310°
2026-04-25 11:57 19.20613 86.88944 37820 ft 460 kts 310°
2026-04-25 11:58 19.25194 86.84204 37829 ft 459 kts 310°
2026-04-25 11:58 19.29767 86.79469 37825 ft 459 kts 310°
2026-04-25 11:59 19.34344 86.74726 37822 ft 459 kts 310°
2026-04-25 11:59 19.38888 86.70012 37825 ft 459 kts 310°
2026-04-25 12:00 19.45717 86.62924 37823 ft 459 kts 310°
2026-04-25 12:01 19.52569 86.55805 37820 ft 459 kts 310°
2026-04-25 12:01 19.57119 86.51076 37818 ft 459 kts 310°
2026-04-25 12:02 19.63953 86.43951 37816 ft 459 kts 310°
2026-04-25 12:02 19.68479 86.39184 37813 ft 460 kts 310°
2026-04-25 12:03 19.73008 86.34414 37815 ft 460 kts 310°
2026-04-25 12:03 19.77578 86.29608 37808 ft 461 kts 310°
2026-04-25 12:04 19.82121 86.24829 37807 ft 462 kts 310°
2026-04-25 12:04 19.86706 86.20007 37804 ft 463 kts 310°
2026-04-25 12:05 19.91267 86.15201 37800 ft 464 kts 310°
2026-04-25 12:05 19.95961 86.10449 37799 ft 465 kts 311°
2026-04-25 12:06 20.00643 86.05730 37793 ft 465 kts 311°
2026-04-25 12:06 20.05299 86.00942 37788 ft 465 kts 310°
2026-04-25 12:07 20.09948 85.96147 37781 ft 464 kts 310°
2026-04-25 12:07 20.14593 85.91372 37779 ft 464 kts 310°
2026-04-25 12:08 20.19230 85.86611 37775 ft 464 kts 310°
2026-04-25 12:08 20.23841 85.81853 37777 ft 463 kts 309°
2026-04-25 12:09 20.28086 85.76752 37771 ft 458 kts 304°
2026-04-25 12:09 20.32170 85.71530 37778 ft 457 kts 304°
2026-04-25 12:10 20.36233 85.66349 37779 ft 457 kts 304°
2026-04-25 12:10 20.40336 85.61155 37783 ft 456 kts 304°
2026-04-25 12:11 20.44413 85.56005 37783 ft 455 kts 304°
2026-04-25 12:11 20.48496 85.50844 37781 ft 453 kts 304°
2026-04-25 12:12 20.51871 85.46574 37780 ft 452 kts 304°
2026-04-25 12:12 20.56586 85.40601 37783 ft 450 kts 304°
2026-04-25 12:13 20.60628 85.35476 37780 ft 449 kts 304°
2026-04-25 12:13 20.64627 85.30399 37776 ft 448 kts 304°
2026-04-25 12:14 20.68629 85.25315 37778 ft 448 kts 304°
2026-04-25 12:14 20.72658 85.20192 37778 ft 448 kts 304°
2026-04-25 12:15 20.76656 85.15102 37782 ft 449 kts 304°
2026-04-25 12:15 20.80687 85.09967 37780 ft 450 kts 304°
2026-04-25 12:16 20.84709 85.04840 37783 ft 451 kts 304°
2026-04-25 12:16 20.88739 84.99697 37778 ft 452 kts 303°
2026-04-25 12:17 20.92773 84.94544 37786 ft 454 kts 303°
2026-04-25 12:17 20.96835 84.89352 37788 ft 455 kts 303°
2026-04-25 12:18 21.00885 84.84170 37784 ft 455 kts 303°
2026-04-25 12:18 21.04967 84.78942 37781 ft 456 kts 303°
2026-04-25 12:19 21.11055 84.71137 37788 ft 456 kts 303°
2026-04-25 12:20 21.15120 84.65919 37786 ft 455 kts 303°
2026-04-25 12:20 21.19164 84.60722 37782 ft 455 kts 302°
2026-04-25 12:21 21.23212 84.55516 37785 ft 455 kts 302°
2026-04-25 12:21 21.27247 84.50322 37783 ft 454 kts 302°
2026-04-25 12:22 21.31298 84.45103 37780 ft 453 kts 302°
2026-04-25 12:22 21.34649 84.40780 37779 ft 453 kts 302°
2026-04-25 12:23 21.38687 84.35567 37772 ft 453 kts 302°
2026-04-25 12:23 21.42711 84.30368 37774 ft 453 kts 302°
2026-04-25 12:24 21.46714 84.25193 37782 ft 454 kts 302°
2026-04-25 12:24 21.50748 84.19971 37767 ft 455 kts 302°
2026-04-25 12:25 21.54811 84.14712 37769 ft 456 kts 302°
2026-04-25 12:25 21.58859 84.09466 37765 ft 457 kts 302°
2026-04-25 12:26 21.62920 84.04204 37758 ft 457 kts 302°
2026-04-25 12:26 21.66962 83.98954 37769 ft 457 kts 302°
2026-04-25 12:27 21.71046 83.93691 37757 ft 457 kts 302°
2026-04-25 12:27 21.75123 83.88491 37763 ft 456 kts 302°
2026-04-25 12:28 21.79219 83.83267 37762 ft 455 kts 302°
2026-04-25 12:28 21.83274 83.78084 37764 ft 453 kts 302°
2026-04-25 12:29 21.87328 83.72896 37764 ft 452 kts 302°
2026-04-25 12:29 21.91356 83.67735 37770 ft 451 kts 302°
2026-04-25 12:30 21.95383 83.62571 37771 ft 449 kts 302°
2026-04-25 12:30 21.99405 83.57412 37775 ft 448 kts 302°
2026-04-25 12:31 22.03417 83.52264 37775 ft 447 kts 302°
2026-04-25 12:31 22.07409 83.47129 37780 ft 446 kts 302°
2026-04-25 12:32 22.11299 83.41940 37781 ft 445 kts 301°
2026-04-25 12:32 22.15126 83.36713 37786 ft 445 kts 301°
2026-04-25 12:33 22.18979 83.31501 37789 ft 446 kts 301°
2026-04-25 12:33 22.22917 83.26340 37793 ft 446 kts 302°
2026-04-25 12:34 22.26899 83.21190 37782 ft 447 kts 303°
2026-04-25 12:34 22.30879 83.16035 37780 ft 447 kts 302°
2026-04-25 12:35 22.34863 83.10854 37806 ft 447 kts 302°
2026-04-25 12:35 22.38828 83.05689 37789 ft 447 kts 302°
2026-04-25 12:36 22.42811 83.00493 37793 ft 447 kts 302°
2026-04-25 12:36 22.46772 82.95323 37780 ft 447 kts 302°
2026-04-25 12:37 22.50730 82.90150 37773 ft 447 kts 302°
2026-04-25 12:37 22.54680 82.84986 37782 ft 446 kts 302°
2026-04-25 12:38 22.58628 82.79817 37779 ft 446 kts 302°
2026-04-25 12:38 22.62571 82.74647 37770 ft 446 kts 301°
2026-04-25 12:39 22.66517 82.69470 37770 ft 447 kts 301°
2026-04-25 12:39 22.70466 82.64284 37770 ft 447 kts 301°
2026-04-25 12:40 22.74421 82.59087 37768 ft 447 kts 301°
2026-04-25 12:40 22.78372 82.53889 37769 ft 447 kts 301°
2026-04-25 12:41 22.82352 82.48647 37773 ft 447 kts 301°
2026-04-25 12:41 22.86286 82.43462 37773 ft 447 kts 301°
2026-04-25 12:42 22.90219 82.38273 37774 ft 446 kts 301°
2026-04-25 12:42 22.94172 82.33053 37776 ft 446 kts 301°
2026-04-25 12:43 22.98102 82.27861 37775 ft 446 kts 301°
2026-04-25 12:43 23.04010 82.20050 37779 ft 446 kts 301°
2026-04-25 12:44 23.07951 82.14844 37785 ft 447 kts 302°
2026-04-25 12:45 23.14009 82.07131 37787 ft 448 kts 302°
2026-04-25 12:45 23.20108 81.99408 37789 ft 448 kts 302°
2026-04-25 12:46 23.24155 81.94260 37788 ft 448 kts 302°
2026-04-25 12:46 23.28202 81.89102 37785 ft 449 kts 302°
2026-04-25 12:47 23.32244 81.83945 37789 ft 449 kts 302°
2026-04-25 12:47 23.36290 81.78777 37784 ft 450 kts 302°
2026-04-25 12:48 23.40345 81.73593 37782 ft 450 kts 302°
2026-04-25 12:48 23.44420 81.68377 37785 ft 450 kts 302°
2026-04-25 12:49 23.48458 81.63205 37781 ft 451 kts 302°
2026-04-25 12:49 23.52523 81.57993 37779 ft 451 kts 302°
2026-04-25 12:50 23.56581 81.52783 37782 ft 451 kts 303°
2026-04-25 12:50 23.60644 81.47561 37774 ft 452 kts 303°
2026-04-25 12:51 23.64711 81.42330 37771 ft 452 kts 303°
2026-04-25 12:51 23.68759 81.37117 37774 ft 452 kts 303°
2026-04-25 12:52 23.72850 81.31843 37772 ft 453 kts 303°
2026-04-25 12:52 23.76922 81.26589 37767 ft 453 kts 303°
2026-04-25 12:53 23.80991 81.21331 37767 ft 454 kts 303°
2026-04-25 12:53 23.85057 81.16072 37764 ft 454 kts 303°
2026-04-25 12:54 23.89134 81.10794 37762 ft 455 kts 304°
2026-04-25 12:54 23.93214 81.05507 37762 ft 455 kts 304°
2026-04-25 12:55 23.96599 81.01115 37751 ft 456 kts 304°
2026-04-25 12:55 24.01360 80.94932 37758 ft 457 kts 304°
2026-04-25 12:56 24.05467 80.89592 37767 ft 457 kts 304°
2026-04-25 12:56 24.09567 80.84256 37747 ft 458 kts 304°
2026-04-25 12:57 24.13662 80.78919 37765 ft 459 kts 304°
2026-04-25 12:57 24.17770 80.73560 37743 ft 460 kts 305°
2026-04-25 12:58 24.21859 80.68221 37770 ft 460 kts 305°
2026-04-25 12:58 24.25981 80.62833 37750 ft 461 kts 305°
2026-04-25 12:59 24.30084 80.57463 37752 ft 462 kts 305°
2026-04-25 12:59 24.34227 80.52035 37752 ft 462 kts 306°
2026-04-25 13:00 24.36960 80.48451 37754 ft 463 kts 306°
2026-04-25 13:00 24.42501 80.41177 37748 ft 464 kts 306°
2026-04-25 13:01 24.46634 80.35745 37757 ft 465 kts 306°
2026-04-25 13:01 24.50770 80.30302 37753 ft 465 kts 306°
2026-04-25 13:02 24.54923 80.24832 37752 ft 466 kts 306°
2026-04-25 13:02 24.59056 80.19382 37747 ft 466 kts 306°
2026-04-25 13:03 24.63219 80.13886 37742 ft 467 kts 306°
2026-04-25 13:03 24.67356 80.08421 37738 ft 468 kts 307°
2026-04-25 13:04 24.71526 80.02909 37730 ft 468 kts 307°
2026-04-25 13:04 24.75690 79.97401 37723 ft 469 kts 307°
2026-04-25 13:05 24.79987 79.92003 37726 ft 471 kts 313°
2026-04-25 13:05 24.85032 79.87352 37728 ft 474 kts 321°
2026-04-25 13:06 24.90370 79.83085 37722 ft 475 kts 321°
2026-04-25 13:06 24.95716 79.78826 37725 ft 475 kts 321°
2026-04-25 13:07 25.01054 79.74539 37732 ft 476 kts 321°
2026-04-25 13:07 25.06386 79.70236 37729 ft 476 kts 321°
2026-04-25 13:08 25.11716 79.65925 37737 ft 476 kts 322°
2026-04-25 13:08 25.17059 79.61599 37737 ft 477 kts 322°
2026-04-25 13:09 25.22406 79.57266 37743 ft 477 kts 322°
2026-04-25 13:09 25.27754 79.52929 37744 ft 477 kts 322°
2026-04-25 13:10 25.33103 79.48586 37744 ft 477 kts 322°
2026-04-25 13:10 25.38481 79.44214 37981 ft 479 kts 322°
2026-04-25 13:11 25.41142 79.42050 38326 ft 477 kts 322°
2026-04-25 13:11 25.43787 79.39896 38631 ft 475 kts 322°
2026-04-25 13:11 25.46461 79.37718 38892 ft 473 kts 322°
2026-04-25 13:11 25.49098 79.35568 39112 ft 473 kts 322°
2026-04-25 13:12 25.50864 79.34127 39243 ft 473 kts 321°
2026-04-25 13:12 25.54393 79.31249 39596 ft 471 kts 321°
2026-04-25 13:12 25.57904 79.28382 39698 ft 470 kts 321°
2026-04-25 13:13 25.64027 79.23378 39741 ft 466 kts 321°
2026-04-25 13:13 25.69210 79.19138 39746 ft 463 kts 321°
2026-04-25 13:14 25.74386 79.14899 39752 ft 462 kts 321°
2026-04-25 13:14 25.79559 79.10657 39757 ft 461 kts 321°
2026-04-25 13:15 25.84709 79.06430 39760 ft 461 kts 321°
2026-04-25 13:15 25.89860 79.02199 39763 ft 462 kts 321°
2026-04-25 13:16 25.95036 78.97943 39762 ft 462 kts 321°
2026-04-25 13:16 26.00181 78.93709 39764 ft 463 kts 321°
2026-04-25 13:17 26.05380 78.89430 39766 ft 464 kts 321°
2026-04-25 13:17 26.10562 78.85151 39771 ft 464 kts 320°
2026-04-25 13:18 26.12906 78.82735 39771 ft 462 kts 308°
2026-04-25 13:18 26.14764 78.79801 39778 ft 460 kts 298°
2026-04-25 13:18 26.17033 78.73183 39776 ft 457 kts 283°
2026-04-25 13:19 26.18471 78.66290 39776 ft 458 kts 283°
2026-04-25 13:19 26.19681 78.60551 39775 ft 459 kts 283°
2026-04-25 13:20 26.21463 78.52463 39783 ft 459 kts 284°
2026-04-25 13:20 26.23005 78.45567 39780 ft 459 kts 284°
2026-04-25 13:21 26.24540 78.38685 39777 ft 460 kts 283°
2026-04-25 13:21 26.26077 78.31774 39775 ft 459 kts 283°
2026-04-25 13:22 26.27782 78.24952 39762 ft 456 kts 294°
2026-04-25 13:22 26.29408 78.21933 39782 ft 456 kts 306°
2026-04-25 13:23 26.34107 78.17216 39787 ft 458 kts 326°
2026-04-25 13:23 26.39609 78.13587 39787 ft 460 kts 327°
2026-04-25 13:24 26.45146 78.09977 39783 ft 461 kts 327°
2026-04-25 13:24 26.50656 78.06315 39781 ft 462 kts 326°
2026-04-25 13:25 26.56177 78.02604 39775 ft 463 kts 326°
2026-04-25 13:25 26.61699 77.98879 39772 ft 463 kts 326°
2026-04-25 13:26 26.67193 77.95170 39770 ft 464 kts 326°
2026-04-25 13:26 26.72707 77.91446 39766 ft 463 kts 326°
2026-04-25 13:27 26.78246 77.87701 39764 ft 463 kts 326°
2026-04-25 13:27 26.83739 77.83983 39758 ft 462 kts 326°
2026-04-25 13:28 26.89227 77.80265 39753 ft 461 kts 326°
2026-04-25 13:28 26.94729 77.76533 39745 ft 461 kts 326°
2026-04-25 13:29 27.00196 77.72821 39747 ft 460 kts 326°
2026-04-25 13:29 27.05660 77.69108 39741 ft 459 kts 326°
2026-04-25 13:30 27.13842 77.63547 39746 ft 459 kts 326°
2026-04-25 13:31 27.22158 77.58214 39752 ft 460 kts 332°
2026-04-25 13:31 27.28171 77.55779 39765 ft 462 kts 339°
2026-04-25 13:32 27.34347 77.53633 39757 ft 463 kts 339°
2026-04-25 13:32 27.40467 77.51482 39758 ft 463 kts 339°
2026-04-25 13:33 27.46633 77.49286 39769 ft 464 kts 339°
2026-04-25 13:33 27.52778 77.47088 39757 ft 465 kts 339°
2026-04-25 13:34 27.58920 77.44876 39762 ft 465 kts 338°
2026-04-25 13:34 27.65123 77.42630 39763 ft 466 kts 338°
2026-04-25 13:35 27.71281 77.40406 39763 ft 467 kts 338°
2026-04-25 13:35 27.77498 77.38164 39762 ft 467 kts 338°
2026-04-25 13:36 27.83682 77.35932 39765 ft 468 kts 338°
2026-04-25 13:36 27.89859 77.33700 39765 ft 468 kts 338°
2026-04-25 13:37 27.96070 77.31452 39762 ft 468 kts 338°
2026-04-25 13:37 28.02281 77.29202 39762 ft 469 kts 338°
2026-04-25 13:38 28.08486 77.26952 39765 ft 469 kts 338°
2026-04-25 13:38 28.14694 77.24698 39765 ft 469 kts 338°
2026-04-25 13:39 28.20908 77.22440 39769 ft 469 kts 338°
2026-04-25 13:39 28.27107 77.20184 39770 ft 469 kts 338°
2026-04-25 13:40 28.33319 77.17922 39771 ft 469 kts 338°
2026-04-25 13:40 28.39528 77.15660 39772 ft 470 kts 338°
2026-04-25 13:41 28.45740 77.13398 39777 ft 470 kts 338°
2026-04-25 13:41 28.51996 77.11099 39778 ft 469 kts 336°
2026-04-25 13:42 28.57722 77.07775 39783 ft 462 kts 322°
2026-04-25 13:42 28.62654 77.03133 39771 ft 458 kts 313°
2026-04-25 13:43 28.67224 76.98061 39772 ft 458 kts 312°
2026-04-25 13:43 28.71790 76.93047 39774 ft 459 kts 313°
2026-04-25 13:44 28.76421 76.88037 39774 ft 459 kts 313°
2026-04-25 13:44 28.81053 76.83024 39773 ft 460 kts 314°
2026-04-25 13:45 28.86090 76.78482 39784 ft 462 kts 320°
2026-04-25 13:45 28.91298 76.74200 39763 ft 462 kts 320°
2026-04-25 13:46 28.96531 76.69899 39766 ft 462 kts 320°
2026-04-25 13:46 29.01753 76.65577 39771 ft 462 kts 320°
2026-04-25 13:47 29.06936 76.61267 39774 ft 462 kts 320°
2026-04-25 13:47 29.12141 76.56932 39778 ft 462 kts 320°
2026-04-25 13:48 29.17335 76.52600 39779 ft 462 kts 320°
2026-04-25 13:48 29.22544 76.48252 39788 ft 462 kts 320°
2026-04-25 13:49 29.27733 76.43914 39778 ft 462 kts 320°
2026-04-25 13:49 29.32908 76.39584 39779 ft 462 kts 320°
2026-04-25 13:50 29.38103 76.35230 39784 ft 462 kts 319°
2026-04-25 13:50 29.43301 76.30869 39790 ft 463 kts 319°
2026-04-25 13:51 29.48496 76.26505 39787 ft 463 kts 319°
2026-04-25 13:51 29.53704 76.22125 39786 ft 463 kts 319°
2026-04-25 13:52 29.58866 76.17778 39784 ft 463 kts 319°
2026-04-25 13:52 29.64072 76.13389 39789 ft 463 kts 319°
2026-04-25 13:53 29.69267 76.09004 39792 ft 463 kts 319°
2026-04-25 13:53 29.74436 76.04639 39793 ft 463 kts 319°
2026-04-25 13:54 29.79627 76.00252 39791 ft 463 kts 319°
2026-04-25 13:54 29.84822 75.95865 39789 ft 462 kts 319°
2026-04-25 13:55 29.90054 75.91523 39791 ft 462 kts 319°
2026-04-25 13:55 29.95277 75.87205 39790 ft 462 kts 319°
2026-04-25 13:56 30.00460 75.82911 39791 ft 461 kts 319°
2026-04-25 13:56 30.05660 75.78593 39795 ft 460 kts 319°
2026-04-25 13:57 30.10842 75.74282 39793 ft 459 kts 319°
2026-04-25 13:57 30.16037 75.69955 39795 ft 458 kts 319°
2026-04-25 13:58 30.21169 75.65674 39796 ft 457 kts 319°
2026-04-25 13:58 30.25480 75.62075 39791 ft 456 kts 319°
2026-04-25 13:59 30.30584 75.57808 39797 ft 455 kts 319°
2026-04-25 13:59 30.35722 75.53507 39795 ft 454 kts 319°
2026-04-25 14:00 30.39984 75.49934 39800 ft 454 kts 319°
2026-04-25 14:00 30.45963 75.44918 39800 ft 454 kts 319°
2026-04-25 14:01 30.51071 75.40626 39803 ft 453 kts 319°
2026-04-25 14:01 30.56169 75.36336 39804 ft 453 kts 319°
2026-04-25 14:02 30.61271 75.32040 39791 ft 453 kts 319°
2026-04-25 14:02 30.66364 75.27745 39793 ft 453 kts 319°
2026-04-25 14:03 30.71484 75.23426 39807 ft 453 kts 318°
2026-04-25 14:03 30.76558 75.19141 39812 ft 453 kts 318°
2026-04-25 14:04 30.81551 75.14716 39821 ft 449 kts 313°
2026-04-25 14:04 30.86114 75.09759 39806 ft 447 kts 311°
2026-04-25 14:05 30.90633 75.04763 39806 ft 448 kts 311°
2026-04-25 14:05 30.95167 74.99792 39803 ft 448 kts 311°
2026-04-25 14:06 30.99715 74.94829 39802 ft 448 kts 311°
2026-04-25 14:06 31.04248 74.89883 39803 ft 448 kts 311°
2026-04-25 14:07 31.08794 74.84914 39801 ft 448 kts 311°
2026-04-25 14:07 31.13340 74.79938 39800 ft 448 kts 311°
2026-04-25 14:08 31.17899 74.74941 39800 ft 449 kts 311°
2026-04-25 14:08 31.22458 74.69940 39800 ft 449 kts 311°
2026-04-25 14:09 31.26987 74.64972 39798 ft 450 kts 311°
2026-04-25 14:09 31.31501 74.59916 39799 ft 447 kts 306°
2026-04-25 14:10 31.34763 74.53884 39806 ft 438 kts 290°
2026-04-25 14:10 31.36519 74.47150 39805 ft 432 kts 279°
2026-04-25 14:11 31.37753 74.40207 39802 ft 434 kts 278°
2026-04-25 14:11 31.39009 74.33312 39803 ft 437 kts 279°
2026-04-25 14:12 31.40323 74.26345 39803 ft 439 kts 279°
2026-04-25 14:12 31.41645 74.19377 39801 ft 440 kts 279°
2026-04-25 14:13 31.42970 74.12382 39800 ft 441 kts 279°
2026-04-25 14:13 31.44206 74.05330 39811 ft 440 kts 275°
2026-04-25 14:14 31.44534 73.98191 39802 ft 439 kts 267°
2026-04-25 14:14 31.44009 73.91102 39793 ft 437 kts 262°
2026-04-25 14:15 31.43246 73.84023 39806 ft 437 kts 262°
2026-04-25 14:15 31.42530 73.76950 39806 ft 437 kts 262°
2026-04-25 14:16 31.41815 73.69884 39803 ft 437 kts 262°
2026-04-25 14:16 31.41075 73.62831 39810 ft 437 kts 262°
2026-04-25 14:17 31.40336 73.55772 39809 ft 437 kts 262°
2026-04-25 14:17 31.39601 73.48722 39810 ft 437 kts 262°
2026-04-25 14:18 31.38864 73.41677 39810 ft 437 kts 262°
2026-04-25 14:18 31.38124 73.34630 39814 ft 438 kts 262°
2026-04-25 14:19 31.37373 73.27522 39809 ft 438 kts 262°
2026-04-25 14:19 31.36625 73.20468 39807 ft 439 kts 263°
2026-04-25 14:20 31.35869 73.13361 39804 ft 439 kts 263°
2026-04-25 14:20 31.35115 73.06274 39803 ft 440 kts 263°
2026-04-25 14:21 31.34351 72.99193 39806 ft 440 kts 263°
2026-04-25 14:21 31.33573 72.92096 39804 ft 441 kts 263°
2026-04-25 14:22 31.32791 72.84982 39805 ft 441 kts 263°
2026-04-25 14:22 31.32013 72.77877 39806 ft 441 kts 263°
2026-04-25 14:23 31.31230 72.70732 39805 ft 442 kts 263°
2026-04-25 14:23 31.30448 72.63625 39804 ft 443 kts 263°
2026-04-25 14:24 31.29658 72.56478 39807 ft 444 kts 263°
2026-04-25 14:24 31.28860 72.49277 39801 ft 445 kts 263°
2026-04-25 14:25 31.28066 72.42115 39798 ft 446 kts 263°
2026-04-25 14:25 31.27319 72.34941 39789 ft 443 kts 268°
2026-04-25 14:26 31.28120 72.27846 39807 ft 443 kts 284°
2026-04-25 14:26 31.30543 72.21220 39810 ft 446 kts 296°
2026-04-25 14:27 31.33557 72.14873 39804 ft 446 kts 297°
2026-04-25 14:27 31.36562 72.08537 39798 ft 446 kts 296°
2026-04-25 14:28 31.39540 72.02148 39794 ft 446 kts 296°
2026-04-25 14:28 31.42484 71.95776 39790 ft 445 kts 296°
2026-04-25 14:29 31.45414 71.89422 39789 ft 444 kts 296°
2026-04-25 14:29 31.48340 71.83069 39793 ft 442 kts 296°
2026-04-25 14:30 31.51237 71.76772 39794 ft 441 kts 296°
2026-04-25 14:30 31.55596 71.67287 39794 ft 439 kts 296°
2026-04-25 14:31 31.58492 71.60966 39795 ft 439 kts 296°
2026-04-25 14:31 31.61366 71.54658 39797 ft 438 kts 296°
2026-04-25 14:32 31.64230 71.48361 39794 ft 438 kts 296°
2026-04-25 14:32 31.67101 71.42056 39796 ft 438 kts 296°
2026-04-25 14:33 31.69967 71.35756 39798 ft 438 kts 296°
2026-04-25 14:33 31.72836 71.29442 39800 ft 438 kts 296°
2026-04-25 14:34 31.75699 71.23132 39797 ft 438 kts 296°
2026-04-25 14:34 31.78561 71.16813 39798 ft 438 kts 296°
2026-04-25 14:35 31.81417 71.10499 39797 ft 438 kts 296°
2026-04-25 14:35 31.84276 71.04170 39799 ft 438 kts 296°
2026-04-25 14:36 31.87125 70.97861 39801 ft 437 kts 296°
2026-04-25 14:36 31.89961 70.91553 39801 ft 437 kts 297°
2026-04-25 14:37 31.93229 70.85527 39797 ft 438 kts 305°
2026-04-25 14:37 31.96966 70.79842 39805 ft 438 kts 306°
2026-04-25 14:38 32.00705 70.74162 39806 ft 438 kts 305°
2026-04-25 14:38 32.04416 70.68495 39807 ft 437 kts 305°
2026-04-25 14:39 32.08123 70.62815 39812 ft 436 kts 305°
2026-04-25 14:39 32.11815 70.57146 39811 ft 435 kts 305°
2026-04-25 14:40 32.15484 70.51506 39815 ft 433 kts 305°
2026-04-25 14:40 32.19122 70.45905 39820 ft 431 kts 305°
2026-04-25 14:41 32.22762 70.40294 39828 ft 429 kts 305°
2026-04-25 14:41 32.26372 70.34722 39835 ft 427 kts 305°
2026-04-25 14:42 32.28779 70.31004 39847 ft 426 kts 305°
2026-04-25 14:42 32.33582 70.23581 39863 ft 424 kts 305°
2026-04-25 14:43 32.37139 70.18064 39874 ft 421 kts 305°
2026-04-25 14:43 32.40748 70.12599 39887 ft 420 kts 306°
2026-04-25 14:44 32.44350 70.07223 39899 ft 418 kts 306°
2026-04-25 14:44 32.47957 70.01830 39919 ft 417 kts 306°
2026-04-25 14:45 32.51563 69.96418 39940 ft 418 kts 306°
2026-04-25 14:45 32.55144 69.91036 39956 ft 418 kts 306°
2026-04-25 14:46 32.58744 69.85615 39961 ft 420 kts 305°
2026-04-25 14:46 32.62362 69.80161 39974 ft 421 kts 305°
2026-04-25 14:47 32.64784 69.76505 39971 ft 422 kts 305°
2026-04-25 14:47 32.69619 69.69195 39987 ft 424 kts 305°
2026-04-25 14:48 32.72672 69.64574 39985 ft 424 kts 305°
2026-04-25 14:48 32.76293 69.59088 39993 ft 423 kts 305°
2026-04-25 14:49 32.79912 69.53599 40002 ft 422 kts 305°
2026-04-25 14:49 32.83542 69.48089 40000 ft 422 kts 306°
2026-04-25 14:50 32.87146 69.42598 40009 ft 420 kts 305°
2026-04-25 14:50 32.90708 69.37128 40012 ft 419 kts 305°
2026-04-25 14:51 32.94279 69.31635 40009 ft 418 kts 305°
2026-04-25 14:51 32.97850 69.26148 40021 ft 419 kts 305°
2026-04-25 14:52 33.01417 69.20665 40037 ft 419 kts 305°
2026-04-25 14:52 33.04372 69.16117 40034 ft 419 kts 305°
2026-04-25 14:53 33.08550 69.09678 40035 ft 419 kts 305°
2026-04-25 14:53 33.12095 69.04205 40024 ft 419 kts 305°
2026-04-25 14:54 33.15673 68.98675 40026 ft 419 kts 305°
2026-04-25 14:54 33.19223 68.93181 40039 ft 420 kts 305°
2026-04-25 14:55 33.22808 68.87632 40019 ft 420 kts 305°
2026-04-25 14:55 33.26376 68.82093 40013 ft 420 kts 305°
2026-04-25 14:56 33.30045 68.76684 40019 ft 420 kts 307°
2026-04-25 14:56 33.33843 68.71378 40010 ft 420 kts 308°
2026-04-25 14:57 33.37648 68.66069 40013 ft 420 kts 308°
2026-04-25 14:57 33.41440 68.60759 40007 ft 420 kts 308°
2026-04-25 14:58 33.45229 68.55442 40017 ft 419 kts 308°
2026-04-25 14:58 33.49003 68.50141 40021 ft 419 kts 308°
2026-04-25 14:59 33.52799 68.44803 40037 ft 418 kts 308°
2026-04-25 14:59 33.56522 68.39503 40048 ft 417 kts 307°
2026-04-25 15:00 33.60179 68.34120 40064 ft 416 kts 306°
2026-04-25 15:00 33.63836 68.28723 40085 ft 415 kts 306°
2026-04-25 15:01 33.67456 68.23398 40104 ft 413 kts 307°
2026-04-25 15:01 33.71085 68.18061 40104 ft 412 kts 307°
2026-04-25 15:02 33.74689 68.12762 40137 ft 408 kts 307°
2026-04-25 15:02 33.78261 68.07497 40161 ft 405 kts 306°
2026-04-25 15:03 33.81832 68.02224 40151 ft 408 kts 306°
2026-04-25 15:03 33.85445 67.96881 40166 ft 414 kts 306°
2026-04-25 15:04 33.89101 67.91473 40173 ft 416 kts 306°
2026-04-25 15:04 33.92752 67.86069 40172 ft 417 kts 306°
2026-04-25 15:05 33.96389 67.80677 40157 ft 411 kts 306°
2026-04-25 15:06 34.01703 67.72689 40181 ft 407 kts 306°
2026-04-25 15:06 34.05232 67.67322 40153 ft 408 kts 306°
2026-04-25 15:07 34.08772 67.61949 40175 ft 411 kts 306°
2026-04-25 15:07 34.12343 67.56532 40176 ft 414 kts 306°
2026-04-25 15:08 34.15927 67.51090 40185 ft 415 kts 305°
2026-04-25 15:08 34.19544 67.45595 40151 ft 415 kts 305°
2026-04-25 15:09 34.23104 67.40171 40182 ft 415 kts 305°
2026-04-25 15:09 34.28488 67.31954 40186 ft 413 kts 305°
2026-04-25 15:10 34.32051 67.26508 40198 ft 413 kts 305°
2026-04-25 15:11 34.37430 67.18267 40193 ft 415 kts 305°
2026-04-25 15:11 34.40992 67.12803 40196 ft 416 kts 304°
2026-04-25 15:12 34.46384 67.04518 40201 ft 416 kts 304°
2026-04-25 15:12 34.48770 67.00849 40199 ft 416 kts 304°
2026-04-25 15:13 34.55281 66.90803 40207 ft 413 kts 304°
2026-04-25 15:14 34.58824 66.85279 40215 ft 414 kts 304°
2026-04-25 15:14 34.62369 66.79748 40200 ft 415 kts 304°
2026-04-25 15:15 34.65908 66.74233 40215 ft 415 kts 304°
2026-04-25 15:15 34.69468 66.68679 40205 ft 415 kts 304°
2026-04-25 15:16 34.73003 66.63157 40225 ft 415 kts 304°
2026-04-25 15:16 34.78327 66.54824 40230 ft 418 kts 303°
2026-04-25 15:17 34.83684 66.46421 40238 ft 419 kts 303°
2026-04-25 15:18 34.87265 66.40795 40242 ft 419 kts 303°
2026-04-25 15:18 34.92606 66.32398 40241 ft 418 kts 303°
2026-04-25 15:19 34.94980 66.28655 40248 ft 416 kts 303°
2026-04-25 15:19 34.99660 66.21217 40252 ft 417 kts 303°
2026-04-25 15:20 35.03163 66.15590 40261 ft 417 kts 302°
2026-04-25 15:20 35.06698 66.09903 40231 ft 420 kts 302°
2026-04-25 15:21 35.10243 66.04215 40234 ft 421 kts 302°
2026-04-25 15:21 35.13771 65.98550 40237 ft 421 kts 302°
2026-04-25 15:22 35.17325 65.92833 40236 ft 421 kts 302°
2026-04-25 15:22 35.20869 65.87123 40237 ft 421 kts 302°
2026-04-25 15:23 35.24392 65.81436 40232 ft 421 kts 302°
2026-04-25 15:23 35.27939 65.75699 40224 ft 421 kts 302°
2026-04-25 15:24 35.31447 65.70022 40215 ft 420 kts 302°
2026-04-25 15:24 35.33806 65.66195 40227 ft 423 kts 302°
2026-04-25 15:25 35.38581 65.58436 40219 ft 429 kts 302°
2026-04-25 15:25 35.42182 65.52576 40207 ft 431 kts 302°
2026-04-25 15:26 35.45788 65.46701 40199 ft 433 kts 302°
2026-04-25 15:26 35.49407 65.40792 40185 ft 432 kts 302°
2026-04-25 15:27 35.52983 65.34944 40175 ft 430 kts 301°
2026-04-25 15:28 35.58365 65.26124 40173 ft 427 kts 301°
2026-04-25 15:28 35.61912 65.20298 40150 ft 426 kts 301°
2026-04-25 15:29 35.65447 65.14480 40139 ft 426 kts 301°
2026-04-25 15:29 35.69008 65.08612 40125 ft 426 kts 301°
2026-04-25 15:30 35.72557 65.02751 40106 ft 427 kts 301°
2026-04-25 15:30 35.76097 64.96897 40107 ft 428 kts 301°
2026-04-25 15:31 35.79646 64.91017 40089 ft 430 kts 301°
2026-04-25 15:31 35.83217 64.85096 40074 ft 431 kts 301°
2026-04-25 15:32 35.86787 64.79162 40059 ft 432 kts 301°
2026-04-25 15:32 35.90368 64.73201 40045 ft 433 kts 301°
2026-04-25 15:33 35.95746 64.64231 40029 ft 434 kts 301°
2026-04-25 15:33 35.99343 64.58219 40017 ft 434 kts 301°
2026-04-25 15:34 36.02312 64.53248 40014 ft 434 kts 301°
2026-04-25 15:34 36.05291 64.48255 40003 ft 434 kts 301°
2026-04-25 15:35 36.11272 64.38216 39994 ft 434 kts 301°
2026-04-25 15:36 36.16629 64.29196 39990 ft 433 kts 301°
2026-04-25 15:36 36.20289 64.23234 39998 ft 434 kts 302°
2026-04-25 15:37 36.23989 64.17357 39997 ft 435 kts 302°
2026-04-25 15:37 36.27722 64.11422 39994 ft 436 kts 302°
2026-04-25 15:38 36.31440 64.05483 39990 ft 437 kts 302°
2026-04-25 15:38 36.35168 63.99503 39995 ft 438 kts 302°
2026-04-25 15:39 36.38884 63.93531 39998 ft 438 kts 302°
2026-04-25 15:39 36.42613 63.87528 39995 ft 439 kts 302°
2026-04-25 15:40 36.45725 63.82510 39993 ft 440 kts 302°
2026-04-25 15:40 36.50059 63.75511 39992 ft 440 kts 302°
2026-04-25 15:41 36.53802 63.69453 39989 ft 440 kts 302°
2026-04-25 15:41 36.57528 63.63413 39984 ft 440 kts 302°
2026-04-25 15:42 36.61243 63.57380 39981 ft 440 kts 302°
2026-04-25 15:42 36.64960 63.51332 39977 ft 440 kts 302°
2026-04-25 15:43 36.68690 63.45254 39976 ft 439 kts 302°
2026-04-25 15:43 36.72402 63.39191 39968 ft 439 kts 302°
2026-04-25 15:44 36.76079 63.33178 39962 ft 439 kts 301°
2026-04-25 15:44 36.79785 63.27104 39959 ft 439 kts 301°
2026-04-25 15:45 36.83484 63.21032 39954 ft 439 kts 301°
2026-04-25 15:45 36.86550 63.15990 39951 ft 439 kts 301°
2026-04-25 15:46 36.90849 63.08909 39950 ft 438 kts 301°
2026-04-25 15:46 36.94525 63.02843 39933 ft 438 kts 301°
2026-04-25 15:47 36.98204 62.96759 39934 ft 438 kts 301°
2026-04-25 15:47 37.01870 62.90687 39929 ft 437 kts 301°
2026-04-25 15:48 37.05529 62.84617 39926 ft 436 kts 301°
2026-04-25 15:48 37.09168 62.78567 39921 ft 435 kts 301°
2026-04-25 15:49 37.12805 62.72510 39917 ft 434 kts 300°
2026-04-25 15:49 37.16435 62.66453 39914 ft 433 kts 300°
2026-04-25 15:50 37.20048 62.60415 39916 ft 432 kts 300°
2026-04-25 15:50 37.23633 62.54412 39911 ft 432 kts 300°
2026-04-25 15:51 37.26627 62.49391 39914 ft 431 kts 300°
2026-04-25 15:51 37.30818 62.42350 39907 ft 430 kts 300°
2026-04-25 15:52 37.34380 62.36354 39906 ft 430 kts 300°
2026-04-25 15:52 37.37963 62.30312 39908 ft 430 kts 300°
2026-04-25 15:53 37.41535 62.24279 39910 ft 430 kts 300°
2026-04-25 15:53 37.45103 62.18242 39901 ft 430 kts 300°
2026-04-25 15:54 37.48673 62.12193 39901 ft 431 kts 300°
2026-04-25 15:54 37.52249 62.06126 39894 ft 431 kts 299°
2026-04-25 15:55 37.55821 62.00061 39888 ft 432 kts 299°
2026-04-25 15:55 37.59362 61.93976 39892 ft 430 kts 296°
2026-04-25 15:56 37.61874 61.87250 39893 ft 419 kts 284°
2026-04-25 15:56 37.63168 61.80285 39888 ft 405 kts 274°
2026-04-25 15:57 37.63821 61.73251 39883 ft 403 kts 272°
2026-04-25 15:57 37.64459 61.66199 39889 ft 403 kts 273°
2026-04-25 15:58 37.65120 61.59206 39893 ft 403 kts 273°
2026-04-25 15:58 37.65802 61.52150 39900 ft 404 kts 273°
2026-04-25 15:59 37.66482 61.45109 39903 ft 404 kts 273°
2026-04-25 15:59 37.67159 61.38066 39903 ft 405 kts 273°
2026-04-25 16:00 37.67606 61.33390 39905 ft 405 kts 273°
2026-04-25 16:00 37.68498 61.23982 39905 ft 405 kts 272°
2026-04-25 16:01 37.69156 61.17031 39532 ft 393 kts 272°
2026-04-25 16:01 37.69475 61.13647 39155 ft 386 kts 272°
2026-04-25 16:01 37.69788 61.10305 38703 ft 382 kts 272°
2026-04-25 16:02 37.70099 61.06965 38149 ft 378 kts 272°
2026-04-25 16:02 37.70403 61.03685 37631 ft 374 kts 272°
2026-04-25 16:02 37.70703 61.00450 37142 ft 369 kts 272°
2026-04-25 16:02 37.70998 60.97258 36668 ft 365 kts 272°
2026-04-25 16:03 37.71291 60.94069 36196 ft 361 kts 272°
2026-04-25 16:03 37.71577 60.90945 35738 ft 358 kts 272°
2026-04-25 16:03 37.71860 60.87844 35280 ft 359 kts 272°
2026-04-25 16:03 37.72148 60.84678 34813 ft 364 kts 272°
2026-04-25 16:04 37.72435 60.81514 34340 ft 364 kts 272°
2026-04-25 16:04 37.72725 60.78328 33836 ft 362 kts 272°
2026-04-25 16:04 37.73010 60.75208 33312 ft 359 kts 272°
2026-04-25 16:04 37.73291 60.72112 32826 ft 355 kts 272°
2026-04-25 16:05 37.73573 60.68998 32346 ft 352 kts 272°
2026-04-25 16:05 37.73848 60.65949 31897 ft 349 kts 272°
2026-04-25 16:05 37.74392 60.59912 30948 ft 345 kts 272°
2026-04-25 16:06 37.74659 60.56909 30507 ft 343 kts 271°
2026-04-25 16:06 37.74924 60.53887 30054 ft 342 kts 271°
2026-04-25 16:06 37.75220 60.50938 29553 ft 340 kts 273°
2026-04-25 16:06 37.75575 60.47972 29059 ft 338 kts 274°
2026-04-25 16:07 37.75938 60.45077 28623 ft 336 kts 274°
2026-04-25 16:07 37.76064 60.44085 28465 ft 335 kts 274°
2026-04-25 16:07 37.76672 60.39260 27731 ft 331 kts 274°
2026-04-25 16:07 37.77028 60.36413 27317 ft 329 kts 274°
2026-04-25 16:08 37.77381 60.33560 26908 ft 328 kts 274°
2026-04-25 16:08 37.77731 60.30715 26498 ft 331 kts 274°
2026-04-25 16:08 37.78086 60.27806 26088 ft 341 kts 275°
2026-04-25 16:08 37.78451 60.24806 25650 ft 349 kts 275°
2026-04-25 16:09 37.78822 60.21763 25211 ft 350 kts 275°
2026-04-25 16:09 37.79195 60.18714 24770 ft 348 kts 275°
2026-04-25 16:09 37.79561 60.15710 24336 ft 347 kts 275°
2026-04-25 16:09 37.79926 60.12702 23900 ft 347 kts 275°
2026-04-25 16:10 37.80289 60.09700 23462 ft 346 kts 275°
2026-04-25 16:10 37.80654 60.06672 22961 ft 345 kts 275°
2026-04-25 16:10 37.81013 60.03692 22508 ft 343 kts 275°
2026-04-25 16:10 37.81368 60.00736 22065 ft 341 kts 275°
2026-04-25 16:11 37.81724 59.97763 21630 ft 339 kts 275°
2026-04-25 16:11 37.82077 59.94808 21202 ft 337 kts 275°
2026-04-25 16:11 37.82424 59.91898 20784 ft 335 kts 275°
2026-04-25 16:11 37.82768 59.89011 20372 ft 333 kts 276°
2026-04-25 16:12 37.83114 59.86100 19948 ft 331 kts 276°
2026-04-25 16:12 37.83453 59.83238 19533 ft 330 kts 276°
2026-04-25 16:12 37.83789 59.80391 19126 ft 328 kts 276°
2026-04-25 16:12 37.83900 59.79452 18985 ft 328 kts 276°
2026-04-25 16:13 37.84461 59.74695 18281 ft 326 kts 276°
2026-04-25 16:13 37.84795 59.71848 17822 ft 325 kts 276°
2026-04-25 16:13 37.85122 59.69065 17391 ft 322 kts 276°
2026-04-25 16:13 37.85451 59.66268 16980 ft 319 kts 276°
2026-04-25 16:14 37.85774 59.63506 16568 ft 316 kts 276°
2026-04-25 16:14 37.86095 59.60754 16168 ft 313 kts 276°
2026-04-25 16:14 37.86410 59.58053 15775 ft 310 kts 276°
2026-04-25 16:14 37.86721 59.55379 15396 ft 307 kts 276°
2026-04-25 16:15 37.87030 59.52723 15017 ft 304 kts 275°
2026-04-25 16:15 37.87335 59.50091 14640 ft 301 kts 275°
2026-04-25 16:15 37.87638 59.47483 14269 ft 298 kts 275°
2026-04-25 16:15 37.87939 59.44895 13900 ft 295 kts 275°
2026-04-25 16:16 37.88236 59.42333 13506 ft 293 kts 275°
2026-04-25 16:16 37.88526 59.39798 13112 ft 290 kts 275°
2026-04-25 16:16 37.88811 59.37295 12745 ft 286 kts 275°
2026-04-25 16:16 37.89089 59.34841 12384 ft 282 kts 275°
2026-04-25 16:17 37.89298 59.32365 12029 ft 278 kts 272°
2026-04-25 16:17 37.89438 59.29947 11695 ft 274 kts 271°
2026-04-25 16:17 37.89566 59.27569 11362 ft 272 kts 271°
2026-04-25 16:17 37.89696 59.25164 11034 ft 276 kts 271°
2026-04-25 16:18 37.89833 59.22712 10703 ft 284 kts 272°
2026-04-25 16:18 37.89881 59.21860 10583 ft 287 kts 272°
2026-04-25 16:18 37.90127 59.17656 10140 ft 283 kts 272°
2026-04-25 16:18 37.90271 59.15231 9978 ft 271 kts 272°
2026-04-25 16:19 37.90411 59.12889 9683 ft 265 kts 272°
2026-04-25 16:19 37.90547 59.10586 9372 ft 260 kts 272°
2026-04-25 16:19 37.90681 59.08324 9064 ft 255 kts 272°
2026-04-25 16:20 37.90945 59.03857 8489 ft 258 kts 273°
2026-04-25 16:20 37.91082 59.01543 8179 ft 265 kts 273°
2026-04-25 16:20 37.91357 58.96893 7554 ft 261 kts 274°
2026-04-25 16:21 37.91491 58.94623 7260 ft 256 kts 274°
2026-04-25 16:21 37.91621 58.92404 6965 ft 251 kts 274°
2026-04-25 16:21 37.91750 58.90204 6680 ft 252 kts 274°
2026-04-25 16:21 37.91882 58.87942 6405 ft 258 kts 274°
2026-04-25 16:22 37.92016 58.85655 6092 ft 263 kts 274°
2026-04-25 16:22 37.92149 58.83366 5772 ft 260 kts 274°
2026-04-25 16:22 37.92281 58.81104 5467 ft 258 kts 275°
2026-04-25 16:22 37.92412 58.78841 5214 ft 259 kts 275°
2026-04-25 16:23 37.92543 58.76577 5006 ft 258 kts 275°
2026-04-25 16:23 37.92675 58.74291 4792 ft 258 kts 275°
2026-04-25 16:23 37.92806 58.72040 4566 ft 257 kts 275°
2026-04-25 16:23 37.92936 58.69789 4346 ft 252 kts 275°
2026-04-25 16:24 37.93019 58.68327 4190 ft 246 kts 275°
2026-04-25 16:24 37.93175 58.65530 3935 ft 234 kts 275°
2026-04-25 16:24 37.93249 58.64174 3808 ft 228 kts 275°
2026-04-25 16:24 37.93356 58.62187 3625 ft 221 kts 275°
2026-04-25 16:25 37.93407 58.60306 3501 ft 212 kts 265°
2026-04-25 16:25 37.93215 58.59096 3447 ft 208 kts 256°
2026-04-25 16:25 37.92685 58.56795 3214 ft 198 kts 255°
2026-04-25 16:25 37.92303 58.55163 3062 ft 194 kts 255°
2026-04-25 16:26 37.91987 58.53540 2872 ft 185 kts 268°
2026-04-25 16:26 37.92304 58.52005 2738 ft 177 kts 297°
2026-04-25 16:26 37.92790 58.50588 2629 ft 175 kts 292°
2026-04-25 16:26 37.93313 58.49241 2447 ft 167 kts 300°
2026-04-25 16:27 37.93881 58.47999 2300 ft 155 kts 299°
2026-04-25 16:27 37.94393 58.46864 2072 ft 144 kts 298°
2026-04-25 16:27 37.94899 58.45744 1939 ft 147 kts 298°
2026-04-25 16:27 37.95403 58.44620 1741 ft 147 kts 297°
2026-04-25 16:28 37.95907 58.43502 1571 ft 144 kts 296°
2026-04-25 16:28 37.96399 58.42405 1378 ft 143 kts 296°
2026-04-25 16:28 37.96883 58.41310 1217 ft 140 kts 295°
2026-04-25 16:28 37.97341 58.40259 1087 ft 135 kts 295°
2026-04-25 16:29 37.97832 58.39234 888 ft 138 kts 296°
2026-04-25 16:29 37.98312 58.38148 738 ft 143 kts 296°
2026-04-25 16:29 37.98764 58.37104 696 ft 124 kts 296°
2026-04-25 16:29 37.99135 58.36320 697 ft 82 kts 298°
2026-04-25 16:30 37.99270 58.36004 695 ft 19 kts 299°
2026-04-25 16:30 37.99313 58.35901 695 ft 13 kts 295°
2026-04-25 16:30 37.99345 58.35794 696 ft 14 kts 286°
2026-04-25 16:30 37.99360 58.35676 693 ft 11 kts 273°
2026-04-25 16:31 37.99360 58.35576 695 ft 11 kts 267°
2026-04-25 16:31 37.99358 58.35551 695 ft 1 kts 261°
2026-04-25 16:31 37.99354 58.35530 694 ft 4 kts 251°
2026-04-25 16:31 37.99316 58.35482 696 ft 11 kts 199°
2026-04-25 16:32 37.99252 58.35518 694 ft 11 kts 131°
2026-04-25 16:32 37.99209 58.35606 697 ft 12 kts 119°
2026-04-25 16:32 37.99163 58.35708 696 ft 14 kts 119°
2026-04-25 16:32 37.99112 58.35822 696 ft 15 kts 119°
2026-04-25 16:33 37.99072 58.35912 696 ft 6 kts 120°
2026-04-25 16:33 37.99049 58.35963 697 ft 8 kts 119°
2026-04-25 16:33 37.99011 58.36048 695 ft 16 kts 120°
2026-04-25 16:33 37.98946 58.36195 697 ft 20 kts 119°
2026-04-25 16:34 37.98876 58.36355 696 ft 21 kts 119°
2026-04-25 16:34 37.98803 58.36521 697 ft 22 kts 119°
2026-04-25 16:34 37.98730 58.36688 698 ft 21 kts 115°
2026-04-25 16:34 37.98674 58.36861 701 ft 21 kts 111°
2026-04-25 16:35 37.98641 58.36967 701 ft 8 kts 111°
2026-04-25 16:35 37.98605 58.37008 699 ft 7 kts 172°
2026-04-25 16:35 37.98553 58.36988 703 ft 8 kts 201°
2026-04-25 16:35 37.98500 58.37006 699 ft 9 kts 139°
2026-04-25 16:36 37.98462 58.37078 700 ft 11 kts 119°
2026-04-25 16:36 37.98450 58.37106 696 ft 11 kts 119°
2026-04-25 16:36 37.98401 58.37211 699 ft 3 kts 136°
2026-04-25 16:36 37.98378 58.37211 696 ft 4 kts 188°
2026-04-25 16:37 37.98348 58.37196 697 ft 5 kts 206°
2026-04-25 16:37 37.98317 58.37175 701 ft 4 kts 209°
2026-04-25 16:37 37.98305 58.37166 707 ft 1 kts 209°
2026-04-25 16:37 37.98304 58.37166 707 ft 0 kts 209°